| time (UTC) | temp C | wind direction | speed KPH | gust KPH | rain 1hr cm | rain 24hr cm | rain mn cm | humidity % | barometer mb |
| 20260904055952 | 18 | 342 | 1.6 | 6.4 | 0.00 | 0.00 | 0.00 | 47 | 1021.1 |
| 20260904054152 | 18 | 7 | 0.0 | 8.0 | 0.00 | 0.00 | 0.00 | 48 | 1021.6 |
| 20260904051452 | 17 | 320 | 1.6 | 4.8 | 0.00 | 0.00 | 0.00 | 49 | 1021.6 |
| 20260904050552 | 17 | 282 | 1.6 | 6.4 | 0.00 | 0.00 | 0.00 | 50 | 1021.6 |
| 20260904045652 | 17 | 323 | 3.2 | 6.4 | 0.00 | 0.00 | 0.00 | 51 | 1021.3 |
| 20260904044752 | 16 | 256 | 3.2 | 6.4 | 0.00 | 0.00 | 0.00 | 52 | 1021.3 |
| 20260904042952 | 16 | 308 | 1.6 | 4.8 | 0.00 | 0.00 | 0.00 | 53 | 1021.4 |
| 20260904041152 | 16 | 320 | 1.6 | 4.8 | 0.00 | 0.00 | 0.00 | 52 | 1021.5 |
| 20260904040252 | 16 | 311 | 0.0 | 6.4 | 0.00 | 0.00 | 0.00 | 51 | 1021.5 |
| 20260904035352 | 16 | 131 | 1.6 | 4.8 | 0.00 | 0.00 | 0.00 | 52 | 1021.5 |
| 20260904034452 | 16 | 234 | 1.6 | 6.4 | 0.00 | 0.00 | 0.00 | 52 | 1021.6 |
| 20260904033552 | 16 | 258 | 1.6 | 6.4 | 0.00 | 0.00 | 0.00 | 53 | 1021.6 |
| 20260904032652 | 16 | 285 | 1.6 | 4.8 | 0.00 | 0.00 | 0.00 | 52 | 1021.8 |
| 20260904031752 | 16 | 241 | 1.6 | 6.4 | 0.00 | 0.00 | 0.00 | 52 | 1021.8 |
| 20260904030852 | 16 | 283 | 1.6 | 9.7 | 0.00 | 0.00 | 0.00 | 52 | 1021.7 |
| 20260904025952 | 16 | 317 | 0.0 | 6.4 | 0.00 | 0.00 | 0.00 | 51 | 1021.6 |
| 20260904025052 | 16 | 246 | 1.6 | 6.4 | 0.00 | 0.00 | 0.00 | 51 | 1021.9 |
| 20260904024152 | 16 | 331 | 1.6 | 4.8 | 0.00 | 0.00 | 0.00 | 50 | 1021.9 |
| 20260904023252 | 16 | 303 | 1.6 | 4.8 | 0.00 | 0.00 | 0.00 | 50 | 1021.9 |
| 20260904022352 | 16 | 316 | 0.0 | 6.4 | 0.00 | 0.00 | 0.00 | 50 | 1021.8 |
| 20260904021452 | 16 | 311 | 1.6 | 4.8 | 0.00 | 0.00 | 0.00 | 49 | 1021.8 |
| 20260904020552 | 16 | 315 | 1.6 | 4.8 | 0.00 | 0.00 | 0.00 | 49 | 1021.7 |
| 20260904015652 | 16 | 307 | 1.6 | 6.4 | 0.00 | 0.00 | 0.00 | 48 | 1021.6 |
| 20260904014752 | 17 | 320 | 3.2 | 6.4 | 0.00 | 0.00 | 0.00 | 47 | 1021.6 |
| 20260904011152 | 17 | 322 | 0.0 | 8.0 | 0.00 | 0.00 | 0.00 | 47 | 1022.0 |
| 20260904010252 | 17 | 315 | 1.6 | 4.8 | 0.00 | 0.00 | 0.00 | 47 | 1022.0 |
| 20260904004452 | 17 | 303 | 0.0 | 8.0 | 0.00 | 0.00 | 0.00 | 47 | 1022.2 |
| 20260904003552 | 17 | 314 | 1.6 | 8.0 | 0.00 | 0.00 | 0.00 | 47 | 1021.9 |
| 20260904002652 | 17 | 267 | 1.6 | 12.9 | 0.00 | 0.00 | 0.00 | 47 | 1022.2 |